SCD 1

Last updated on Mon Nov 03 2025 00:02:34 GMT+0000 (Coordinated Universal Time)

1 22490U 93009B 25305.96482699 .00000529 00000+0 93769-4 0 9999 2 22490 24.9683 170.3881 0041846 253.2320 129.1712 14.45960177728193
UTC large
Height (km)
Speed (km/s)
/
Latitude / Longitude
Inclination (degrees)
Orbital Period (minutes)
Azimuth
Elevation
Range (km)
Doppler Factor

Next 0 passes for location: London (51.5072 / 0.1276)

Sorry there are no passes over London.